50.6°F
Current conditions from King Hill
Updated every 5 minutes
 
  Monday September 22, 2014

Station Historical Data
Daily Summary for April 20, 2012 Units:  Metric    English   Both
« Previous Day
Next Day »
Daily Weekly Monthly Yearly Custom
  High: Low: Average:
Temperature: 22.6 °C 7.1 °C 12.6 °C
Dew Point: 9.7 °C 3.6 °C 5.9 °C
Humidity: 86% 43% 65%
Wind Speed: 14.5km/h 0km/h 3.7km/h
Wind Gust: 29km/h - -
Wind- - SW
Pressure: 1012.8 hPa 1005 hPa -
Precipitation: 0 mm    
Historical Graphs
 
 
Tabular Data for April 20, 2012
Time Temperature Dew Point Pressure Wind Wind Speed Wind Gust Humidity Daily Rainfall
00:04 14.3 °C 4.8 °C 1011.7 hPa Calm   9.7 km/h 53% 0 mm
00:09 13.9 °C 4.4 °C 1011.7 hPa Calm   9.7 km/h 53% 0 mm
00:14 13.5 °C 4.4 °C 1011.7 hPa Calm   6.4 km/h 54% 0 mm
00:19 12.9 °C 4.4 °C 1011.7 hPa Calm   4.8 km/h 56% 0 mm
00:24 12.6 °C 4.3 °C 1011.7 hPa Calm   6.4 km/h 57% 0 mm
00:29 12.1 °C 4.1 °C 1011.7 hPa Calm   8 km/h 58% 0 mm
00:34 11.8 °C 4.1 °C 1011.7 hPa Calm   8 km/h 59% 0 mm
00:39 11.9 °C 3.9 °C 1011.7 hPa SSW 4.8 km/h 11.3 km/h 58% 0 mm
00:45 12.2 °C 3.9 °C 1011.7 hPa SSW 1.6 km/h 11.3 km/h 57% 0 mm
00:49 12.2 °C 3.9 °C 1011.7 hPa SSW 1.6 km/h 11.3 km/h 57% 0 mm
00:54 12.1 °C 4.1 °C 1011.7 hPa SSW 6.4 km/h 8 km/h 58% 0 mm
00:59 12.1 °C 4.1 °C 1011.7 hPa Calm   8 km/h 58% 0 mm
01:04 12.1 °C 4.1 °C 1011.7 hPa Calm   8 km/h 58% 0 mm
01:09 12.1 °C 4.1 °C 1011.7 hPa SSW 1.6 km/h 9.7 km/h 58% 0 mm
01:14 12.1 °C 4.1 °C 1011.7 hPa Calm   9.7 km/h 58% 0 mm
01:19 11.9 °C 4.2 °C 1011.7 hPa Calm   6.4 km/h 59% 0 mm
01:24 11.9 °C 4.2 °C 1011.7 hPa Calm   8 km/h 59% 0 mm
01:29 12 °C 4.2 °C 1011.7 hPa SSW 3.2 km/h 8 km/h 59% 0 mm
01:34 12.2 °C 4.9 °C 1011.7 hPa SSW 1.6 km/h 8 km/h 61% 0 mm
01:39 12.3 °C 4.5 °C 1011.7 hPa SSW 1.6 km/h 8 km/h 59% 0 mm
01:45 12.3 °C 4.3 °C 1011.7 hPa SSW 1.6 km/h 8 km/h 58% 0 mm
01:55 12.2 °C 4.4 °C 1011.7 hPa SSW 1.6 km/h 6.4 km/h 59% 0 mm
02:04 12.3 °C 4.5 °C 1011.7 hPa Calm   6.4 km/h 59% 0 mm
02:09 12.1 °C 4.3 °C 1011.7 hPa Calm   4.8 km/h 59% 0 mm
02:14 11.9 °C 4.4 °C 1011.7 hPa Calm   1.6 km/h 60% 0 mm
02:19 11.6 °C 4.3 °C 1011.7 hPa SSW 1.6 km/h 4.8 km/h 61% 0 mm
02:24 11.5 °C 4.2 °C 1011.7 hPa Calm   6.4 km/h 61% 0 mm
02:34 11.6 °C 4.1 °C 1011.7 hPa SSW 3.2 km/h 8 km/h 60% 0 mm
02:39 11.9 °C 4.4 °C 1011.4 hPa Calm   8 km/h 60% 0 mm
02:44 12 °C 4.5 °C 1011.4 hPa SSW 3.2 km/h 6.4 km/h 60% 0 mm
02:49 11.9 °C 4.4 °C 1011.4 hPa Calm   6.4 km/h 60% 0 mm
02:54 11.5 °C 4 °C 1011.4 hPa Calm   6.4 km/h 60% 0 mm
02:59 11.1 °C 3.9 °C 1011.4 hPa Calm     61% 0 mm
03:04 10.7 °C 3.7 °C 1011.4 hPa Calm   6.4 km/h 62% 0 mm
03:09 10.4 °C 3.7 °C 1011.4 hPa Calm   6.4 km/h 63% 0 mm
03:14 10.4 °C 3.7 °C 1011.4 hPa Calm   3.2 km/h 63% 0 mm
03:19 10.4 °C 3.7 °C 1011.4 hPa Calm   1.6 km/h 63% 0 mm
03:25 10.3 °C 3.8 °C 1011.4 hPa Calm   4.8 km/h 64% 0 mm
03:34 10.3 °C 3.6 °C 1011.4 hPa Calm   4.8 km/h 63% 0 mm
03:39 9.8 °C 3.7 °C 1011.7 hPa Calm     66% 0 mm
03:45 9.3 °C 3.7 °C 1011.7 hPa Calm     68% 0 mm
03:54 9.1 °C 3.7 °C 1012.1 hPa Calm     69% 0 mm
03:59 9.1 °C 3.9 °C 1011.7 hPa Calm     70% 0 mm
04:04 9.1 °C 3.9 °C 1011.7 hPa Calm     70% 0 mm
04:09 8.9 °C 3.8 °C 1011.7 hPa Calm     70% 0 mm
04:14 9 °C 4 °C 1011.7 hPa Calm   1.6 km/h 71% 0 mm
04:19 9.3 °C 4.2 °C 1011.7 hPa Calm   3.2 km/h 70% 0 mm
04:24 9.7 °C 4.4 °C 1011.7 hPa NW 3.2 km/h 12.9 km/h 70% 0 mm
04:34 10.2 °C 4.9 °C 1011.7 hPa Calm   8 km/h 70% 0 mm
04:39 10.3 °C 4.8 °C 1011.7 hPa Calm     69% 0 mm
04:44 10.3 °C 4.8 °C 1011.7 hPa Calm   1.6 km/h 69% 0 mm
04:50 10.2 °C 4.7 °C 1011.7 hPa Calm   1.6 km/h 69% 0 mm
04:59 10.1 °C 4.8 °C 1011.7 hPa Calm   3.2 km/h 70% 0 mm
05:04 9.8 °C 4.6 °C 1011.7 hPa Calm   3.2 km/h 70% 0 mm
05:09 9.8 °C 4.8 °C 1011.7 hPa Calm     71% 0 mm
05:14 9.7 °C 4.7 °C 1011.7 hPa Calm     71% 0 mm
05:19 9.4 °C 4.4 °C 1011.7 hPa Calm     71% 0 mm
05:25 9.4 °C 4.4 °C 1011.7 hPa Calm     71% 0 mm
05:34 9 °C 4.2 °C 1011.7 hPa Calm     72% 0 mm
05:39 8.9 °C 4.3 °C 1011.7 hPa Calm     73% 0 mm
05:45 8.4 °C 3.9 °C 1011.4 hPa Calm     73% 0 mm
05:50 8.1 °C 3.9 °C 1011.4 hPa Calm     75% 0 mm
05:59 7.8 °C 3.7 °C 1011.7 hPa Calm     75% 0 mm
06:04 7.6 °C 3.8 °C 1011.7 hPa Calm     77% 0 mm
06:09 7.4 °C 3.8 °C 1012.1 hPa Calm     78% 0 mm
06:14 7.6 °C 3.9 °C 1011.7 hPa Calm     78% 0 mm
06:19 7.5 °C 3.7 °C 1011.7 hPa Calm     77% 0 mm
06:24 7.4 °C 3.8 °C 1011.7 hPa Calm     78% 0 mm
06:29 7.2 °C 3.8 °C 1011.7 hPa Calm     79% 0 mm
06:34 7.2 °C 3.8 °C 1011.7 hPa Calm     79% 0 mm
06:39 7.2 °C 3.8 °C 1011.7 hPa Calm     79% 0 mm
06:45 7.1 °C 3.9 °C 1012.1 hPa Calm     80% 0 mm
06:54 7.1 °C 4.1 °C 1012.1 hPa Calm     81% 0 mm
06:59 7.5 °C 4.4 °C 1011.7 hPa Calm     81% 0 mm
07:04 7.7 °C 4.5 °C 1011.7 hPa Calm     80% 0 mm
07:09 7.7 °C 4.5 °C 1011.7 hPa Calm     80% 0 mm
07:14 7.9 °C 4.7 °C 1011.7 hPa Calm     80% 0 mm
07:19 8.1 °C 4.8 °C 1011.7 hPa Calm     80% 0 mm
07:24 8.4 °C 5.2 °C 1012.1 hPa Calm     80% 0 mm
07:29 8.9 °C 5.5 °C 1012.1 hPa Calm     79% 0 mm
07:34 9.6 °C 5.9 °C 1012.1 hPa Calm     78% 0 mm
07:39 10.1 °C 6.3 °C 1012.1 hPa Calm     77% 0 mm
07:44 10.7 °C 6.4 °C 1012.1 hPa Calm     75% 0 mm
07:49 10.9 °C 6.3 °C 1012.1 hPa North 3.2 km/h 6.4 km/h 73% 0 mm
07:55 10.9 °C 5.8 °C 1012.1 hPa Calm   8 km/h 71% 0 mm
08:04 10.8 °C 6 °C 1012.1 hPa Calm   1.6 km/h 72% 0 mm
08:09 10.9 °C 5.8 °C 1012.4 hPa Calm   4.8 km/h 71% 0 mm
08:14 10.8 °C 6 °C 1012.1 hPa Calm   4.8 km/h 72% 0 mm
08:19 10.8 °C 5.8 °C 1012.1 hPa Calm   4.8 km/h 71% 0 mm
08:24 10.7 °C 5.6 °C 1012.1 hPa Calm   1.6 km/h 71% 0 mm
08:29 10.6 °C 5.7 °C 1012.4 hPa Calm   3.2 km/h 72% 0 mm
08:34 10.4 °C 5.8 °C 1012.4 hPa Calm   3.2 km/h 73% 0 mm
08:39 10.3 °C 5.5 °C 1012.4 hPa Calm   4.8 km/h 72% 0 mm
08:44 10.5 °C 5.7 °C 1012.4 hPa Calm   4.8 km/h 72% 0 mm
08:49 10.9 °C 6.2 °C 1012.4 hPa Calm   3.2 km/h 73% 0 mm
08:54 11.4 °C 6.1 °C 1012.4 hPa West 1.6 km/h 4.8 km/h 70% 0 mm
08:59 11.7 °C 5.8 °C 1012.4 hPa Calm   4.8 km/h 67% 0 mm
09:04 12 °C 6.1 °C 1012.8 hPa West 1.6 km/h 4.8 km/h 67% 0 mm
09:09 12.1 °C 5.9 °C 1012.8 hPa WNW 3.2 km/h 11.3 km/h 66% 0 mm
09:14 12.1 °C 5.7 °C 1012.8 hPa WNW 4.8 km/h 12.9 km/h 65% 0 mm
09:19 11.8 °C 5.2 °C 1012.8 hPa NW 4.8 km/h 14.5 km/h 64% 0 mm
09:24 11.5 °C 4.9 °C 1012.8 hPa WNW 8 km/h 14.5 km/h 64% 0 mm
09:29 11.3 °C 4.9 °C 1012.8 hPa NW 3.2 km/h 12.9 km/h 65% 0 mm
09:34 11.3 °C 4.8 °C 1012.8 hPa NW 8 km/h 12.9 km/h 64% 0 mm
09:39 11.1 °C 4.7 °C 1012.8 hPa NW 4.8 km/h 11.3 km/h 65% 0 mm
09:44 11 °C 4.4 °C 1012.4 hPa NW 6.4 km/h 11.3 km/h 64% 0 mm
09:54 11.3 °C 4.8 °C 1012.4 hPa Calm   8 km/h 64% 0 mm
09:59 11.5 °C 4.5 °C 1012.4 hPa Calm   3.2 km/h 62% 0 mm
10:04 11.8 °C 5.2 °C 1012.1 hPa NW 1.6 km/h 6.4 km/h 64% 0 mm
10:09 12.3 °C 5.4 °C 1012.1 hPa WNW 4.8 km/h 9.7 km/h 63% 0 mm
10:14 13.1 °C 6.2 °C 1012.1 hPa SW 1.6 km/h 11.3 km/h 63% 0 mm
10:19 13.3 °C 5.9 °C 1012.1 hPa SSW 1.6 km/h 11.3 km/h 61% 0 mm
10:24 13.4 °C 5.8 °C 1012.1 hPa SW 4.8 km/h 14.5 km/h 60% 0 mm
10:35 13.8 °C 5.9 °C 1012.1 hPa SW 4.8 km/h 12.9 km/h 59% 0 mm
10:40 14.2 °C 6.6 °C 1012.1 hPa South 4.8 km/h 12.9 km/h 60% 0 mm
10:49 14.7 °C 5.7 °C 1011.7 hPa NW 8 km/h 14.5 km/h 55% 0 mm
10:55 14.4 °C 5.4 °C 1011.7 hPa WNW 6.4 km/h 14.5 km/h 55% 0 mm
11:04 14.3 °C 5.9 °C 1011.7 hPa WNW 8 km/h 14.5 km/h 57% 0 mm
11:09 15 °C 6.6 °C 1011.4 hPa West 1.6 km/h 11.3 km/h 57% 0 mm
11:14 15.6 °C 6.3 °C 1011.4 hPa West 3.2 km/h 12.9 km/h 54% 0 mm
11:19 16.3 °C 7.2 °C 1011.4 hPa SSW 4.8 km/h 12.9 km/h 55% 0 mm
11:24 16.9 °C 7 °C 1011.4 hPa SW 4.8 km/h 12.9 km/h 52% 0 mm
11:29 16.4 °C 5.9 °C 1011.4 hPa SW 4.8 km/h 16.1 km/h 50% 0 mm
11:34 15.7 °C 5.9 °C 1011.7 hPa SSW 4.8 km/h 16.1 km/h 52% 0 mm
11:39 15.6 °C 6 °C 1011.4 hPa WSW 1.6 km/h 12.9 km/h 53% 0 mm
11:44 15 °C 5.5 °C 1011.4 hPa WNW 6.4 km/h 11.3 km/h 53% 0 mm
11:49 14.3 °C 5.4 °C 1011.4 hPa WNW 6.4 km/h 11.3 km/h 55% 0 mm
11:54 13.7 °C 5.1 °C 1011.4 hPa WNW 8 km/h 11.3 km/h 56% 0 mm
11:59 13.3 °C 5.2 °C 1011.4 hPa NW 6.4 km/h 12.9 km/h 58% 0 mm
12:04 13.2 °C 5.3 °C 1011.4 hPa WNW 3.2 km/h 12.9 km/h 59% 0 mm
12:09 13 °C 5.4 °C 1011.4 hPa Calm   9.7 km/h 60% 0 mm
12:14 13.1 °C 5.2 °C 1011.4 hPa Calm   8 km/h 59% 0 mm
12:19 13 °C 5.2 °C 1011.4 hPa WNW 1.6 km/h 8 km/h 59% 0 mm
12:24 12.9 °C 5.1 °C 1011.1 hPa WNW 6.4 km/h 9.7 km/h 59% 0 mm
12:29 12.8 °C 5.3 °C 1011.1 hPa WNW 4.8 km/h 9.7 km/h 60% 0 mm
12:34 12.8 °C 5.2 °C 1011.1 hPa Calm   8 km/h 60% 0 mm
12:39 12.9 °C 5.1 °C 1011.1 hPa Calm   8 km/h 59% 0 mm
12:44 13 °C 5.2 °C 1011.1 hPa Calm   4.8 km/h 59% 0 mm
12:49 13.2 °C 5.4 °C 1011.1 hPa Calm   1.6 km/h 59% 0 mm
12:54 13.3 °C 5.4 °C 1010.7 hPa WNW 1.6 km/h 8 km/h 59% 0 mm
12:59 13.3 °C 5.2 °C 1010.7 hPa Calm   8 km/h 58% 0 mm
13:04 13.3 °C 5.5 °C 1010.7 hPa Calm   6.4 km/h 59% 0 mm
13:09 13.4 °C 5.6 °C 1010.7 hPa Calm   1.6 km/h 59% 0 mm
13:14 13.4 °C 5.6 °C 1010.4 hPa Calm   1.6 km/h 59% 0 mm
13:19 13.6 °C 5.7 °C 1010.4 hPa Calm   3.2 km/h 59% 0 mm
13:24 13.8 °C 5.7 °C 1010.4 hPa Calm   4.8 km/h 58% 0 mm
13:29 14 °C 5.9 °C 1010.4 hPa WNW 3.2 km/h 4.8 km/h 58% 0 mm
13:34 14.3 °C 5.9 °C 1010.4 hPa WNW 1.6 km/h 6.4 km/h 57% 0 mm
13:39 14.5 °C 6.1 °C 1010.4 hPa Calm   8 km/h 57% 0 mm
13:44 14.7 °C 6.5 °C 1010.4 hPa WNW 1.6 km/h 8 km/h 58% 0 mm
13:49 14.6 °C 5.9 °C 1010 hPa Calm   9.7 km/h 56% 0 mm
13:54 14.4 °C 6.2 °C 1010 hPa WNW 1.6 km/h 9.7 km/h 58% 0 mm
13:59 14.2 °C 5.8 °C 1010 hPa WNW 1.6 km/h 8 km/h 57% 0 mm
14:04 14.4 °C 6.5 °C 1010 hPa Calm   6.4 km/h 59% 0 mm
14:09 14.7 °C 6.7 °C 1009.7 hPa Calm   1.6 km/h 59% 0 mm
14:14 15 °C 6.6 °C 1009.7 hPa Calm   1.6 km/h 57% 0 mm
14:19 15.4 °C 6.4 °C 1009.7 hPa NNE 1.6 km/h 8 km/h 55% 0 mm
14:24 15.6 °C 6.8 °C 1009.4 hPa NNE 1.6 km/h 8 km/h 56% 0 mm
14:29 15.3 °C 6.3 °C 1009.4 hPa NNE 1.6 km/h 6.4 km/h 55% 0 mm
14:34 15.5 °C 6.8 °C 1009.4 hPa Calm   6.4 km/h 56% 0 mm
14:39 16.1 °C 6.8 °C 1009.4 hPa NNE 1.6 km/h 4.8 km/h 54% 0 mm
14:45 16.7 °C 7.6 °C 1009 hPa Calm   4.8 km/h 55% 0 mm
14:54 17.8 °C 7.2 °C 1009 hPa North 1.6 km/h 4.8 km/h 50% 0 mm
14:59 17.9 °C 7.9 °C 1008.7 hPa Calm   4.8 km/h 52% 0 mm
15:05 17.7 °C 7.4 °C 1008.7 hPa East 3.2 km/h 9.7 km/h 51% 0 mm
15:14 17.3 °C 7.4 °C 1008.4 hPa Calm   8 km/h 52% 0 mm
15:19 17.1 °C 7.2 °C 1008.4 hPa Calm   1.6 km/h 52% 0 mm
15:24 17.1 °C 7.1 °C 1008.4 hPa East 1.6 km/h 4.8 km/h 52% 0 mm
15:29 17.2 °C 7.2 °C 1008.4 hPa Calm   4.8 km/h 52% 0 mm
15:34 17.4 °C 7.8 °C 1008 hPa Calm   4.8 km/h 53% 0 mm
15:44 18.2 °C 7.6 °C 1008 hPa ENE 1.6 km/h 8 km/h 50% 0 mm
15:50 18.2 °C 8.5 °C 1008 hPa ENE 1.6 km/h 8 km/h 53% 0 mm
15:55 18.3 °C 7.7 °C 1007.7 hPa Calm   4.8 km/h 50% 0 mm
16:05 18.2 °C 7.9 °C 1007.7 hPa ENE 3.2 km/h 9.7 km/h 51% 0 mm
16:14 18.3 °C 8.3 °C 1007.3 hPa Calm   8 km/h 52% 0 mm
16:19 18.9 °C 9.1 °C 1007.3 hPa Calm   6.4 km/h 53% 0 mm
16:24 19.7 °C 8.7 °C 1007.3 hPa Calm   4.8 km/h 49% 0 mm
16:29 20 °C 8.7 °C 1007.3 hPa Calm   4.8 km/h 48% 0 mm
16:35 20.3 °C 8.3 °C 1007.3 hPa SW 6.4 km/h 9.7 km/h 46% 0 mm
16:44 20.6 °C 8.9 °C 1007 hPa South 6.4 km/h 12.9 km/h 47% 0 mm
16:49 21.1 °C 8.7 °C 1007 hPa SW 3.2 km/h 12.9 km/h 45% 0 mm
16:54 21.7 °C 9.2 °C 1007 hPa Calm   12.9 km/h 45% 0 mm
16:59 22.1 °C 9.6 °C 1007 hPa Calm   8 km/h 45% 0 mm
17:04 22.3 °C 9.2 °C 1006.7 hPa SW 1.6 km/h 8 km/h 43% 0 mm
17:09 22.6 °C 9.3 °C 1006.7 hPa SW 3.2 km/h 8 km/h 43% 0 mm
17:14 22.4 °C 9.3 °C 1006.7 hPa Calm   8 km/h 43% 0 mm
17:19 21.8 °C 9.4 °C 1006.7 hPa Calm   1.6 km/h 45% 0 mm
17:24 21.1 °C 9.1 °C 1006.7 hPa NNW 1.6 km/h 6.4 km/h 46% 0 mm
17:29 20.7 °C 9 °C 1006.7 hPa Calm   6.4 km/h 47% 0 mm
17:34 20.4 °C 9.1 °C 1006.3 hPa Calm   8 km/h 48% 0 mm
17:40 20.3 °C 9.3 °C 1006.3 hPa Calm   8 km/h 49% 0 mm
17:49 20.8 °C 9.7 °C 1006.3 hPa Calm   8 km/h 49% 0 mm
17:54 20.7 °C 9.3 °C 1006.3 hPa Calm   12.9 km/h 48% 0 mm
18:00 20 °C 9.3 °C 1006.3 hPa Calm   12.9 km/h 50% 0 mm
18:10 18.5 °C 8.4 °C 1006.7 hPa NNW 6.4 km/h 9.7 km/h 52% 0 mm
18:19 16.9 °C 7.8 °C 1006.3 hPa NW 3.2 km/h 16.1 km/h 55% 0 mm
18:25 16.2 °C 7.9 °C 1006.3 hPa Calm   16.1 km/h 58% 0 mm
18:35 15.9 °C 7.9 °C 1006.3 hPa Calm   1.6 km/h 59% 0 mm
18:45 15.6 °C 7.9 °C 1006.3 hPa Calm   8 km/h 60% 0 mm
18:50 15.5 °C 7.8 °C 1006.3 hPa Calm   4.8 km/h 60% 0 mm
18:59 15 °C 7.8 °C 1006.3 hPa Calm   9.7 km/h 62% 0 mm
19:04 14.9 °C 7.7 °C 1006 hPa Calm   6.4 km/h 62% 0 mm
19:09 14.8 °C 7.6 °C 1006 hPa Calm   1.6 km/h 62% 0 mm
19:14 14.7 °C 7.8 °C 1006 hPa Calm     63% 0 mm
19:19 14.6 °C 7.7 °C 1006 hPa Calm     63% 0 mm
19:24 14.3 °C 7.3 °C 1006 hPa Calm     63% 0 mm
19:30 14 °C 7.6 °C 1006 hPa Calm   1.6 km/h 65% 0 mm
19:40 13.3 °C 7.3 °C 1006.3 hPa NW 1.6 km/h 3.2 km/h 67% 0 mm
19:49 12.6 °C 7 °C 1006 hPa Calm     69% 0 mm
19:54 12.3 °C 6.9 °C 1006.3 hPa Calm     70% 0 mm
19:59 12 °C 6.9 °C 1006.3 hPa Calm     71% 0 mm
20:04 11.7 °C 6.8 °C 1006.3 hPa NW 1.6 km/h 4.8 km/h 72% 0 mm
20:09 11.5 °C 6.6 °C 1006.3 hPa Calm   4.8 km/h 72% 0 mm
20:14 11.3 °C 6.7 °C 1006.3 hPa Calm   4.8 km/h 73% 0 mm
20:19 11.2 °C 6.7 °C 1006.3 hPa Calm     74% 0 mm
20:24 10.9 °C 6.7 °C 1006.3 hPa Calm     75% 0 mm
20:29 10.8 °C 6.5 °C 1006.3 hPa Calm   1.6 km/h 75% 0 mm
20:34 10.6 °C 6.6 °C 1006.3 hPa Calm   1.6 km/h 76% 0 mm
20:39 10.4 °C 6.3 °C 1006.3 hPa Calm   1.6 km/h 76% 0 mm
20:44 10.2 °C 6.4 °C 1006.3 hPa Calm   1.6 km/h 77% 0 mm
20:49 10.1 °C 6.2 °C 1006.3 hPa Calm     77% 0 mm
20:54 9.9 °C 6.2 °C 1006.3 hPa Calm     78% 0 mm
20:59 9.8 °C 6.3 °C 1006.3 hPa Calm   3.2 km/h 79% 0 mm
21:04 9.7 °C 6.2 °C 1006.3 hPa Calm   3.2 km/h 79% 0 mm
21:09 9.6 °C 6.3 °C 1006 hPa Calm     80% 0 mm
21:14 9.3 °C 6.1 °C 1006.3 hPa Calm     80% 0 mm
21:19 9.2 °C 6.1 °C 1006.3 hPa Calm     81% 0 mm
21:24 9.1 °C 5.9 °C 1006.3 hPa Calm     81% 0 mm
21:29 8.9 °C 5.9 °C 1006.3 hPa Calm     81% 0 mm
21:34 8.9 °C 6 °C 1006.3 hPa Calm     82% 0 mm
21:39 8.8 °C 5.9 °C 1006.3 hPa Calm     82% 0 mm
21:44 8.7 °C 5.9 °C 1006.3 hPa Calm     83% 0 mm
21:49 8.6 °C 5.9 °C 1006 hPa Calm     83% 0 mm
21:54 8.6 °C 6 °C 1006 hPa Calm     84% 0 mm
21:59 8.5 °C 5.9 °C 1006 hPa Calm     84% 0 mm
22:04 8.4 °C 5.8 °C 1006 hPa Calm     84% 0 mm
22:09 8.3 °C 5.9 °C 1006 hPa Calm     85% 0 mm
22:14 8.3 °C 5.9 °C 1006 hPa Calm     85% 0 mm
22:19 8.3 °C 5.9 °C 1005.6 hPa Calm   4.8 km/h 85% 0 mm
22:24 8.6 °C 6.3 °C 1005.6 hPa SSW 1.6 km/h 11.3 km/h 86% 0 mm
22:29 8.9 °C 6.6 °C 1005.6 hPa SSW 1.6 km/h 11.3 km/h 85% 0 mm
22:35 9.3 °C 6.7 °C 1005.6 hPa SSW 6.4 km/h 11.3 km/h 84% 0 mm
22:44 9.3 °C 6.4 °C 1005.6 hPa SW 1.6 km/h 9.7 km/h 82% 0 mm
22:50 9.3 °C 6.4 °C 1005.3 hPa SSW 3.2 km/h 9.7 km/h 82% 0 mm
22:59 9.3 °C 6.4 °C 1005.3 hPa SSW 3.2 km/h 11.3 km/h 82% 0 mm
23:05 9.6 °C 6.7 °C 1005.3 hPa SSW 3.2 km/h 12.9 km/h 82% 0 mm
23:14 10.1 °C 6.8 °C 1005.3 hPa SSW 3.2 km/h 9.7 km/h 80% 0 mm
23:19 10.2 °C 6.7 °C 1005.3 hPa Calm   9.7 km/h 79% 0 mm
23:24 10.3 °C 6.8 °C 1005.3 hPa SW 4.8 km/h 9.7 km/h 79% 0 mm
23:29 10.6 °C 6.9 °C 1005 hPa SW 4.8 km/h 12.9 km/h 78% 0 mm
23:34 10.8 °C 6.9 °C 1005 hPa SW 1.6 km/h 12.9 km/h 77% 0 mm
23:39 11.2 °C 7.2 °C 1005 hPa SW 3.2 km/h 12.9 km/h 76% 0 mm
23:44 12 °C 7.5 °C 1005 hPa SSW 14.5 km/h 29 km/h 74% 0 mm
23:49 12.8 °C 8.1 °C 1005 hPa SSW 8 km/h 29 km/h 73% 0 mm
23:54 13.2 °C 8.2 °C 1005 hPa SSW 8 km/h 24.1 km/h 72% 0 mm
23:59 13.4 °C 8.2 °C 1005 hPa SSW 8 km/h 27.4 km/h 71% 0 mm
Westford Weather
Compliments of Weather Underground

 
 
Current Radar Loop:

Copyright © WestfordWeather.net 2007-2014. All rights reserved.